Flag for Brazil Weather past 2 weeks in Itumbiara, Goiás, Brazil

Now
68 °F

Sunny.


Feels Like: 68 °F
Forecast: 68 / 87 °F
Wind: 7 mph from East

Location: Uberlandia Airport


UV Index: 7 (High)

Visibility: 10 mi


Pressure: 30.09 "Hg

Humidity: 88%

Dew point: 64 °F

Location of ItumbiaraLocation

Historic Weather in Itumbiara

°F

Itumbiara temperature yesterday

Maximum temperature yesterday: 82 °F (at 1:00 PM)
Minimum temperature yesterday: 66 °F (at 6:00 AM)
Average temperature yesterday: 73 °F

Past Weeks' High & Low Weather Summary

 TemperatureHumidityPressure
High86 °F (Apr 8, 3:00 PM)94% (Apr 4, 6:00 AM)30.18 "Hg (Apr 4, 6:00 AM)
Low66 °F (Apr 4, 6:00 AM)43% (Apr 7, 5:00 PM)29.95 "Hg (Apr 9, 3:00 PM)
Average73 °F75%30.07 "Hg
* Reported Apr 4 6:00 AM — Apr 19 6:00 AM, Itumbiara, Weather by CustomWeather, © 2014

Note: Actual official high and low records may vary slightly from our data, if they occured in-between our weather recording intervals... More about our weather records

Advertising

Historic Weather Conditions — Data for Previous 24 hours

 ConditionsComfort  
Time TempWeatherWind HumidityBarometerVisibility
6:00 AM
Apr 19
66 °FClear.6 mph88%30.07 "Hg10 mi
5:00 AM66 °FClear.6 mph88%30.04 "Hg10 mi
4:00 AM68 °FClear.6 mph83%30.04 "Hg10 mi
3:00 AM68 °FClear.7 mph83%30.04 "Hg10 mi
2:00 AM68 °FClear.8 mph83%30.04 "Hg10 mi
1:00 AM68 °FClear.8 mph83%30.04 "Hg10 mi
12:00 AM70 °FClear.7 mph83%30.07 "Hg10 mi
11:00 PM
Apr 18
70 °FClear.6 mph83%30.07 "Hg10 mi
10:00 PM72 °FClear.7 mph73%30.07 "Hg10 mi
9:00 PM73 °FClear.5 mph69%30.07 "Hg10 mi
8:00 PM73 °FThundershowers. Passing clouds.6 mph69%30.04 "HgN/A
7:00 PM75 °FClear.5 mph57%30.01 "Hg10 mi
6:00 PM79 °FPassing clouds.2 mph51%30.01 "HgN/A
5:00 PM79 °FPassing clouds.5 mph58%29.98 "HgN/A
4:00 PM79 °FPassing clouds.6 mph58%29.98 "HgN/A
3:00 PM81 °FPassing clouds.3 mph48%29.98 "HgN/A
2:00 PM79 °FPassing clouds.6 mph58%30.01 "HgN/A
1:00 PM82 °FScattered showers. Scattered clouds.7 mph48%30.04 "HgN/A
12:00 PM79 °FPartly sunny.8 mph65%30.07 "HgN/A
11:00 AM79 °FPartly sunny.8 mph65%30.09 "HgN/A
10:00 AM77 °FPassing clouds.8 mph69%30.09 "HgN/A
9:00 AM75 °FSunny.8 mph69%30.09 "Hg10 mi
8:00 AM70 °FSunny.7 mph83%30.07 "Hg10 mi
7:00 AM66 °FSunny.7 mph88%30.04 "Hg10 mi
Weather by CustomWeather, © 2014

See weather overview